Weather History for KARA - November, 2011

Change the Weather History Date:

Wednesday, November 23, 2011

  Actual Average Record
Temperature  
Mean Temperature 62 °F 59 °F  
Max Temperature 70 °F 70 °F 84 °F (1955)
Min Temperature 54 °F 48 °F 29 °F (1975)
Degree Days  
Heating Degree Days 3 7  
Month to date heating degree days 91 104  
Since 1 July heating degree days 147 138  
Cooling Degree Days 0 1  
Month to date cooling degree days 83 36  
Year to date cooling degree days 3211 2781  
Growing Degree Days 12 (Base 50)    
Moisture  
Dew Point 52 °F    
Average Humidity 73    
Maximum Humidity 93    
Minimum Humidity 53    
Precipitation  
Precipitation 0.00 in 0.17 in 3.30 in (1980)
Month to date precipitation 2.96 2.89  
Year to date precipitation 32.23 53.33  
Sea Level Pressure  
Sea Level Pressure 30.19 in    
Wind  
Wind Speed 11 mph (North)    
Max Wind Speed 21 mph    
Max Gust Speed 25 mph    
Visibility 9 miles    
Events      
T = Trace of Precipitation, MM = Missing Value Source: NWS Daily Summary

Daily Weather History Graph

Daily Weather History Graph

Search for Another Location

Airport or City:

Trip Planner

Search our weather history database for the weather conditions in past years. The results will help you decide how hot, cold, wet, or windy it might be!

Date:

Astronomy

Nov. 23, 2011 Rise Set
Actual Time 6:39 AM CST 5:08 PM CST
Civil Twilight 6:13 AM CST 5:34 PM CST
Nautical Twilight 5:44 AM CST 6:03 PM CST
Astronomical Twilight 5:15 AM CST 6:32 PM CST
Moon 4:47 AM CST (11/23) 3:48 PM CST (11/23)
Length of Visible Light 11h 20m
Length of Day
10h 29m
Waning Crescent, 3% of the Moon is Illuminated
Nov 23
Waning Crescent
Nov 25
New
Dec 2
First Quarter
Dec 10
Full
Dec 17
Last Quarter

Hourly Weather History & Observations

Time (CST) Temp. Dew Point Humidity Pressure Visibility Wind Dir Wind Speed Gust Speed Precip Events Conditions
12:53 AM 60.1 °F 57.0 °F 90% 30.11 in 5.0 mi North 12.7 mph - N/A   Overcast
1:01 AM 60.8 °F 57.2 °F 88% 30.11 in 6.0 mi North 13.8 mph 20.7 mph N/A   Overcast
1:53 AM 57.9 °F 55.9 °F 93% 30.11 in 4.0 mi North 15.0 mph - N/A   Overcast
2:53 AM 57.9 °F 55.0 °F 90% 30.11 in 10.0 mi North 17.3 mph - N/A   Overcast
3:53 AM 57.0 °F 54.0 °F 89% 30.13 in 10.0 mi North 13.8 mph - N/A   Overcast
4:53 AM 57.0 °F 53.1 °F 87% 30.14 in 10.0 mi North 16.1 mph 21.9 mph N/A   Overcast
5:53 AM 57.0 °F 52.0 °F 83% 30.17 in 10.0 mi North 16.1 mph 21.9 mph N/A   Overcast
6:53 AM 57.0 °F 52.0 °F 83% 30.19 in 10.0 mi NNE 10.4 mph - N/A   Overcast
7:53 AM 57.0 °F 52.0 °F 83% 30.21 in 10.0 mi North 11.5 mph - N/A   Overcast
8:53 AM 59.0 °F 52.0 °F 78% 30.23 in 10.0 mi NNE 13.8 mph - N/A   Overcast
9:02 AM 59.0 °F 51.8 °F 77% 30.23 in 10.0 mi NE 15.0 mph - N/A   Overcast
9:53 AM 62.1 °F 52.0 °F 70% 30.23 in 10.0 mi North 11.5 mph - N/A   Overcast
10:36 AM 62.6 °F 51.8 °F 68% 30.23 in 10.0 mi NNE 13.8 mph - N/A   Scattered Clouds
10:53 AM 64.0 °F 53.1 °F 67% 30.22 in 10.0 mi North 11.5 mph - N/A   Partly Cloudy
11:53 AM 64.9 °F 52.0 °F 63% 30.21 in 10.0 mi NNW 11.5 mph - N/A   Clear
12:53 PM 68.0 °F 52.0 °F 56% 30.18 in 10.0 mi North 10.4 mph - N/A   Clear
1:53 PM 69.1 °F 52.0 °F 54% 30.16 in 10.0 mi North 12.7 mph - N/A   Clear
2:53 PM 70.0 °F 52.0 °F 53% 30.16 in 10.0 mi North 10.4 mph - N/A   Clear
3:53 PM 70.0 °F 52.0 °F 53% 30.17 in 10.0 mi North 10.4 mph - N/A   Clear
4:53 PM 66.0 °F 51.1 °F 59% 30.19 in 10.0 mi North 9.2 mph - N/A   Clear
5:53 PM 61.0 °F 52.0 °F 72% 30.20 in 10.0 mi NNW 6.9 mph - N/A   Clear
6:53 PM 59.0 °F 53.1 °F 81% 30.22 in 10.0 mi NNW 5.8 mph - N/A   Clear
7:53 PM 55.9 °F 50.0 °F 80% 30.24 in 10.0 mi North 8.1 mph - N/A   Clear
8:53 PM 57.9 °F 51.1 °F 78% 30.26 in 10.0 mi NNE 10.4 mph - N/A   Clear
9:53 PM 55.9 °F 51.1 °F 84% 30.27 in 10.0 mi NNE 10.4 mph - N/A   Clear
10:53 PM 55.0 °F 50.0 °F 83% 30.27 in 10.0 mi NNE 9.2 mph - N/A   Clear
11:53 PM 54.0 °F 50.0 °F 86% 30.26 in 10.0 mi NNE 9.2 mph - N/A   Clear